Location: La Silve
(44.2414°N, 5.8889°E)
Time: 12:44:32
(UTC+00:00)

Cosmos 2366 rocket - Pass Details

Date: 01 December 2020
Orbit: 955 x 997 km, 82.9° (Epoch: 26 January)

Event Time Altitude Azimuth Distance (km) Brightness Sun altitude
Rises 16:29:54 0° 357° (N) 3,665 6.8 -5.8°
Reaches altitude 10° 16:32:34 10° 4° (N) 2,709 6.1 -6.2°
Maximum altitude 16:38:27 44° 75° (ENE) 1,306 4.3 -7.2°
Drops below altitude 10° 16:44:15 10° 147° (SSE) 2,678 6.2 -8.1°
Sets 16:46:52 0° 154° (SSE) 3,619 6.9 -8.5°
